User: anonymous   Login
Location: Unspecified
(0.0000°N, 0.0000°E)
Time: 09:13:04
(UTC+00:00)
Language:

Transit 4A - Orbit

View from above orbital plane
View from above orbital plane
View from above satellite
View from above satellite

Ground track
Ground track

The orbit data is extracted from the following two-line orbital elements,

1 00116U 61015A   24112.91391532  .00000309  00000-0  29573-3 0  9995
2 00116  66.8123  14.3847 0068714 105.6646 255.2029 13.92024571187259
Epoch (UTC): 21 April 2024 21:56:02
Eccentricity: 0.0068714
inclination: 66.8123°
perigee height: 871 km
apogee height: 972 km
right ascension of ascending node: 14.3847°
argument of perigee: 105.6646°
revolutions per day: 13.92024571
mean anomaly at epoch: 255.2029°
orbit number at epoch: 18725

The dashed part of the orbit path shows where the satellite is in the earth's shadow,  

DLR